FW7227 Weather Reports


Display with metric or nautical units.
time (UTC)temp
F
wind
direction
speed
MPH
gust
MPH
rain 1hr
in
rain 24hr
in
rain mn
in
humidity
%
barometer
mb
20260506012556 50 360 4.0 9.0 0.10 0.25 0.20 94 1006.3
20260506012059 51 360 2.0 9.0 0.10 0.25 0.19 94 1006.3
20260506011557 51 360 4.0 8.0 0.10 0.24 0.18 94 1006.3
20260506011056 51 360 4.0 9.0 0.09 0.23 0.18 93 1006.3
20260506010557 51 360 2.0 9.0 0.08 0.22 0.16 93 1006.3
20260506010105 51 360 3.0 9.0 0.07 0.21 0.15 93 1006.4
20260506005558 51 360 4.0 9.0 0.07 0.20 0.14 93 1006.4
20260506005056 51 360 4.0 11.0 0.07 0.19 0.14 93 1006.4
20260506004554 51 360 4.0 11.0 0.07 0.18 0.12 93 1006.4
20260506004056 51 360 2.0 8.0 0.06 0.17 0.11 93 1006.5
20260506003556 51 360 2.0 9.0 0.07 0.16 0.11 93 1006.5
20260506003054 51 360 2.0 12.0 0.07 0.15 0.10 93 1006.5
20260506002556 51 360 3.0 12.0 0.07 0.15 0.10 93 1006.6
20260506002057 51 360 5.0 9.0 0.07 0.14 0.09 93 1006.6
20260506001600 51 360 3.0 8.0 0.07 0.14 0.08 93 1006.6
20260506001057 51 360 3.0 8.0 0.07 0.14 0.08 93 1006.7
20260506000557 51 360 3.0 10.0 0.07 0.13 0.07 93 1006.7
20260506000100 51 360 3.0 12.0 0.07 0.12 0.07 93 1006.8
20260505235557 51 360 4.0 13.0 0.07 0.12 0.07 93 1006.8
20260505235057 51 360 5.0 13.0 0.06 0.11 0.06 93 1006.9
20260505234601 51 360 5.0 13.0 0.05 0.11 0.05 93 1006.9
20260505234057 51 360 3.0 9.0 0.05 0.11 0.05 93 1007.0
20260505233556 51 360 3.0 11.0 0.03 0.09 0.03 93 1007.0
20260505233114 51 360 5.0 11.0 0.03 0.08 0.03 92 1007.0
20260505232556 51 360 4.0 11.0 0.02 0.07 0.02 92 1007.2
20260505232056 51 360 5.0 11.0 0.01 0.07 0.01 92 1007.2
20260505231556 51 360 3.0 13.0 0.00 0.06 0.00 92 1007.2
20260505231056 51 360 4.0 13.0 0.00 0.06 0.00 92 1007.2
20260505230557 51 360 4.0 12.0 0.00 0.06 0.00 92 1007.3
20260505230104 51 360 4.0 12.0 0.00 0.05 0.00 92 1007.3
20260505225557 52 360 4.0 11.0 0.00 0.06 0.00 92 1007.3
20260505225057 52 360 2.0 10.0 0.00 0.06 0.00 92 1007.3
20260505224559 52 360 4.0 9.0 0.00 0.06 0.00 92 1007.3
20260505224101 52 360 3.0 8.0 0.00 0.06 0.00 92 1007.4
20260505223556 52 360 2.0 8.0 0.00 0.06 0.00 91 1007.3
20260505223057 52 360 2.0 9.0 0.00 0.06 0.00 91 1007.4
20260505222556 52 360 2.0 9.0 0.00 0.06 0.00 91 1007.4
20260505222056 52 360 3.0 9.0 0.00 0.06 0.00 91 1007.4
20260505221604 52 32 3.0 9.0 0.00 0.06 0.00 91 1007.4
20260505221100 52 55 3.0 9.0 0.00 0.06 0.00 91 1007.5
20260505220557 52 65 4.0 11.0 0.00 0.06 0.00 91 1007.5
20260505220057 52 60 6.0 11.0 0.00 0.06 0.00 91 1007.5
20260505215557 52 81 3.0 11.0 0.00 0.07 0.06 91 1007.5
20260505215058 52 54 5.0 11.0 0.00 0.07 0.06 91 1007.6
20260505214605 52 67 6.0 11.0 0.00 0.07 0.06 90 1007.7
20260505214057 52 40 3.0 11.0 0.00 0.07 0.06 90 1007.8
20260505213557 52 54 4.0 10.0 0.00 0.07 0.06 90 1007.7
20260505213104 52 15 4.0 10.0 0.00 0.07 0.06 90 1007.7
20260505212557 52 53 3.0 10.0 0.00 0.07 0.06 90 1007.8
20260505212056 52 57 3.0 12.0 0.00 0.07 0.06 91 1007.8
20260505211559 52 31 5.0 13.0 0.00 0.07 0.06 91 1007.8
20260505211057 52 21 5.0 13.0 0.00 0.07 0.06 90 1007.8
20260505210558 52 44 4.0 12.0 0.00 0.07 0.06 90 1007.8
20260505205556 52 21 5.0 11.0 0.00 0.11 0.06 90 1007.9
20260505205059 52 63 3.0 11.0 0.00 0.11 0.06 90 1007.9
20260505204558 52 44 3.0 12.0 0.00 0.11 0.06 90 1007.9
20260505204056 52 78 6.0 12.0 0.00 0.11 0.06 90 1008.0
20260505203557 52 42 4.0 11.0 0.00 0.11 0.06 90 1007.9
20260505203058 52 66 5.0 13.0 0.00 0.11 0.06 90 1008.0
20260505202557 52 49 4.0 13.0 0.00 0.11 0.06 90 1007.9
20260505202057 52 42 5.0 10.0 0.00 0.11 0.06 90 1007.9
20260505201555 52 27 3.0 12.0 0.00 0.11 0.06 90 1007.8
20260505201057 53 28 6.0 12.0 0.00 0.11 0.06 90 1007.9
20260505200558 53 56 3.0 11.0 0.00 0.11 0.06 90 1007.8
20260505200058 53 28 6.0 11.0 0.00 0.11 0.06 90 1007.9
20260505195556 53 16 5.0 11.0 0.00 0.25 0.06 90 1007.9
20260505195059 53 13 6.0 12.0 0.00 0.25 0.06 90 1007.9
20260505194600 53 34 5.0 12.0 0.00 0.25 0.06 90 1007.9
20260505194056 53 5 6.0 12.0 0.00 0.25 0.06 90 1007.9
20260505193557 53 339 3.0 12.0 0.00 0.25 0.06 90 1007.9
20260505193119 53 51 4.0 11.0 0.00 0.25 0.06 89 1007.9
20260505192557 53 36 4.0 10.0 0.00 0.25 0.06 89 1008.0
20260505192057 53 14 4.0 12.0 0.00 0.25 0.06 89 1007.9
20260505191605 53 44 5.0 12.0 0.00 0.25 0.06 89 1007.9
20260505191056 53 23 7.0 12.0 0.00 0.25 0.06 89 1007.9
20260505190556 54 38 3.0 9.0 0.00 0.25 0.06 89 1007.9
20260505190058 54 41 3.0 9.0 0.00 0.25 0.06 89 1007.9
20260505185557 54 31 3.0 12.0 0.00 0.33 0.06 89 1007.8
20260505185058 54 19 3.0 12.0 0.00 0.33 0.06 88 1007.9
20260505184601 54 38 5.0 12.0 0.00 0.33 0.06 88 1007.9
20260505184058 54 60 4.0 11.0 0.00 0.33 0.06 88 1007.9
20260505183556 54 43 4.0 11.0 0.00 0.33 0.06 88 1008.0
20260505183056 54 61 3.0 11.0 0.00 0.33 0.06 88 1007.9
20260505182556 54 36 4.0 12.0 0.00 0.33 0.06 87 1008.0
20260505182056 54 69 5.0 12.0 0.00 0.33 0.06 87 1008.0
20260505181556 55 340 5.0 10.0 0.00 0.33 0.06 87 1008.0
20260505181056 55 35 2.0 10.0 0.00 0.33 0.06 87 1008.0
20260505180556 55 41 4.0 11.0 0.00 0.33 0.06 87 1008.0
20260505180058 55 24 4.0 11.0 0.00 0.33 0.06 87 1008.0
20260505175556 55 47 3.0 8.0 0.00 0.33 0.06 87 1008.0
20260505175056 55 79 2.0 6.0 0.00 0.33 0.06 87 1008.0
20260505174556 55 0 2.0 11.0 0.00 0.33 0.06 87 1008.0
20260505174100 55 58 2.0 12.0 0.00 0.33 0.06 87 1008.0
20260505173557 55 46 4.0 12.0 0.00 0.33 0.06 87 1008.0
20260505173100 55 42 6.0 12.0 0.00 0.33 0.06 86 1008.0
20260505172556 55 28 5.0 9.0 0.00 0.33 0.06 86 1008.0
20260505172056 55 54 2.0 12.0 0.00 0.33 0.06 86 1008.0
20260505171559 56 23 5.0 12.0 0.00 0.33 0.06 86 1008.1
20260505171056 56 76 4.0 10.0 0.00 0.33 0.06 86 1008.1
20260505170557 56 19 4.0 10.0 0.00 0.33 0.06 85 1008.2
20260505170058 56 30 5.0 10.0 0.00 0.33 0.06 85 1008.3
20260505165558 56 35 4.0 10.0 0.00 0.33 0.06 85 1008.3
20260505165101 56 349 4.0 11.0 0.00 0.33 0.06 85 1008.3
20260505164557 56 31 4.0 11.0 0.00 0.33 0.06 84 1008.3
20260505164057 57 68 4.0 10.0 0.00 0.33 0.06 85 1008.3
20260505163556 57 92 6.0 10.0 0.00 0.33 0.06 84 1008.4
20260505163055 57 23 4.0 10.0 0.00 0.33 0.06 84 1008.3
20260505162600 57 51 3.0 9.0 0.00 0.33 0.06 84 1008.3
20260505162056 57 57 4.0 10.0 0.00 0.33 0.06 84 1008.3
20260505161559 57 22 5.0 10.0 0.00 0.33 0.06 84 1008.4
20260505161056 57 26 3.0 10.0 0.00 0.33 0.06 84 1008.4
20260505160557 58 32 3.0 10.0 0.00 0.33 0.06 84 1008.5
20260505153104 58 38 7.0 13.0 0.00 0.33 0.06 83 1008.6
20260505152557 59 46 5.0 13.0 0.00 0.33 0.06 83 1008.6
20260505152056 59 25 7.0 13.0 0.00 0.33 0.06 83 1008.5
20260505151558 59 18 6.0 11.0 0.00 0.33 0.06 84 1008.5
20260505151100 58 18 4.0 10.0 0.00 0.33 0.06 84 1008.6
20260505150557 58 40 5.0 9.0 0.00 0.33 0.06 84 1008.7
20260505140557 61 360 6.0 12.0 0.00 0.33 0.06 80 1008.9
20260505130116 60 332 4.0 11.0 0.00 0.33 0.06 83 1009.0
20260505124617 60 14 2.0 10.0 0.00 0.33 0.06 84 1009.2
20260505124057 60 346 4.0 10.0 0.00 0.33 0.06 83 1009.2
20260505123602 60 312 5.0 9.0 0.00 0.33 0.06 84 1009.2
20260505123116 60 360 3.0 10.0 0.00 0.33 0.06 83 1009.2
20260505122556 60 360 5.0 10.0 0.00 0.33 0.06 82 1009.2
20260505122056 61 360 5.0 11.0 0.00 0.33 0.06 83 1009.2
20260505121555 61 360 5.0 11.0 0.00 0.33 0.06 83 1009.2
20260505121059 61 18 5.0 11.0 0.00 0.33 0.06 83 1009.1
20260505120559 61 327 5.0 11.0 0.00 0.33 0.06 82 1009.2
20260505120103 61 352 4.0 9.0 0.00 0.33 0.06 82 1009.1
20260505115557 61 342 4.0 8.0 0.00 0.33 0.06 81 1009.1
20260505115057 62 352 3.0 9.0 0.00 0.33 0.06 80 1009.1
20260505114555 62 0 3.0 11.0 0.00 0.33 0.06 79 1009.1
20260505114057 62 360 5.0 11.0 0.00 0.33 0.06 79 1009.1
20260505113602 63 5 2.0 9.0 0.00 0.33 0.06 79 1009.1
20260505113108 63 32 1.0 9.0 0.00 0.33 0.06 79 1009.2
20260505112557 63 0 2.0 9.0 0.00 0.33 0.06 80 1009.1
20260505112057 63 344 4.0 10.0 0.00 0.33 0.06 78 1009.2
20260505111556 63 5 5.0 10.0 0.00 0.33 0.06 79 1009.2
20260505111057 63 306 1.0 6.0 0.00 0.33 0.06 80 1009.2
20260505110556 63 328 2.0 6.0 0.00 0.33 0.06 80 1009.3
20260505102059 64 340 2.0 9.0 0.00 0.33 0.06 77 1009.4
20260505101557 64 314 4.0 9.0 0.00 0.33 0.06 78 1009.5
20260505101057 64 301 2.0 9.0 0.00 0.33 0.06 80 1009.5
20260505100557 63 272 4.0 9.0 0.00 0.33 0.06 80 1009.6
20260505100058 63 311 2.0 7.0 0.00 0.33 0.06 82 1009.5
20260505095559 63 0 2.0 8.0 0.00 0.33 0.06 84 1009.5
20260505095057 62 252 2.0 8.0 0.00 0.33 0.06 85 1009.5
20260505094556 62 287 2.0 7.0 0.00 0.33 0.06 85 1009.5
20260505094056 62 322 2.0 7.0 0.00 0.33 0.06 87 1009.5
20260505093556 61 292 3.0 7.0 0.00 0.33 0.06 90 1009.5
20260505093058 60 280 3.0 6.0 0.00 0.33 0.06 91 1009.5
20260505092557 60 360 1.0 6.0 0.00 0.33 0.06 92 1009.5
20260505092057 60 360 2.0 6.0 0.00 0.33 0.06 93 1009.6
20260505091618 59 360 0.0 1.0 0.00 0.33 0.06 93 1009.6
20260505091056 59 0 0.0 2.0 0.00 0.33 0.06 94 1009.7
20260505090557 59 0 0.0 4.0 0.00 0.33 0.06 94 1009.7
20260505090122 59 0 1.0 4.0 0.00 0.33 0.06 94 1009.7
20260505085557 59 0 0.0 3.0 0.00 0.33 0.06 94 1009.7
20260505085059 58 323 0.0 3.0 0.00 0.33 0.06 94 1009.8
20260505084613 58 0 1.0 3.0 0.00 0.33 0.06 94 1009.8
20260505084056 58 360 0.0 3.0 0.00 0.33 0.06 94 1009.8
20260505083600 58 360 0.0 4.0 0.00 0.33 0.06 94 1009.8
20260505083112 58 0 2.0 5.0 0.00 0.33 0.06 95 1009.9
20260505082557 58 360 1.0 5.0 0.00 0.33 0.06 95 1009.9
20260505082057 58 360 1.0 4.0 0.00 0.33 0.06 94 1009.9
20260505081605 58 360 0.0 3.0 0.00 0.33 0.06 94 1010.0
20260505081058 58 360 1.0 3.0 0.00 0.33 0.06 95 1009.9
20260505080557 58 360 1.0 3.0 0.00 0.33 0.06 95 1010.0
20260505075558 57 242 1.0 4.0 0.00 0.33 0.06 95 1009.9
20260505075057 57 244 0.0 2.0 0.00 0.33 0.06 95 1010.0
20260505074559 57 0 0.0 3.0 0.00 0.33 0.06 94 1010.0
20260505074057 57 0 1.0 4.0 0.00 0.33 0.06 94 1010.0
20260505073557 57 360 1.0 4.0 0.00 0.33 0.06 94 1010.0
20260505073102 57 360 2.0 4.0 0.00 0.33 0.06 94 1010.0
20260505072558 57 0 1.0 4.0 0.00 0.33 0.06 94 1010.0
20260505072058 57 0 0.0 0.0 0.00 0.33 0.06 94 1010.0
20260505071615 57 0 0.0 0.0 0.00 0.33 0.06 94 1010.1
20260505071101 57 0 0.0 3.0 0.00 0.33 0.06 94 1010.0
20260505070558 57 0 0.0 3.0 0.00 0.33 0.06 94 1010.0
20260505070059 57 0 0.0 3.0 0.00 0.33 0.06 94 1010.1
20260505065557 57 360 0.0 2.0 0.01 0.33 0.06 94 1009.9
20260505065057 57 0 0.0 3.0 0.01 0.33 0.06 94 1010.0
20260505064603 57 360 0.0 3.0 0.01 0.33 0.06 94 1010.1
20260505064057 57 360 0.0 3.0 0.02 0.33 0.06 94 1010.1
20260505063600 57 0 1.0 3.0 0.02 0.33 0.06 94 1010.1
20260505063101 57 360 1.0 3.0 0.03 0.33 0.06 94 1010.1
20260505062557 57 360 0.0 3.0 0.03 0.33 0.06 94 1010.1
20260505062059 57 360 0.0 2.0 0.03 0.32 0.05 94 1010.2
20260505061608 57 0 0.0 2.0 0.03 0.32 0.05 94 1010.2
20260505061056 57 360 0.0 2.0 0.03 0.32 0.05 94 1010.2
20260505060558 57 0 0.0 2.0 0.03 0.32 0.05 94 1010.2
20260505055558 56 0 0.0 3.0 0.03 0.31 0.04 94 1010.1
20260505055059 56 0 0.0 3.0 0.03 0.31 0.04 94 1010.1
20260505054557 56 0 0.0 0.0 0.03 0.31 0.04 94 1010.2
20260505054057 56 0 0.0 0.0 0.02 0.30 0.03 94 1010.2
20260505053557 56 0 0.0 0.0 0.02 0.30 0.03 94 1010.1
20260505053107 56 0 0.0 0.0 0.01 0.29 0.03 94 1010.1
20260505052557 56 0 0.0 0.0 0.01 0.29 0.03 94 1010.1
20260505052057 56 0 0.0 0.0 0.00 0.29 0.02 94 1010.2
20260505051605 56 0 0.0 0.0 0.00 0.29 0.02 94 1010.1
20260505051057 56 0 0.0 0.0 0.00 0.29 0.02 94 1010.1
20260505050557 56 0 0.0 0.0 0.00 0.28 0.01 93 1010.2
20260505041602 56 0 0.0 0.0 0.00 0.28 0.01 93 1010.2
20260505041056 56 0 0.0 0.0 0.00 0.28 0.01 93 1010.2
20260505040556 56 0 0.0 0.0 0.00 0.28 0.01 93 1010.3
20260505040059 56 0 0.0 0.0 0.00 0.28 0.01 93 1010.2
20260505035556 56 0 0.0 0.0 0.00 0.28 0.01 93 1010.3
20260505035058 56 0 0.0 0.0 0.00 0.28 0.01 93 1010.3
20260505034554 56 0 0.0 0.0 0.00 0.28 0.01 93 1010.2
20260505034056 56 0 0.0 0.0 0.00 0.28 0.01 93 1010.2
20260505033556 56 0 0.0 0.0 0.00 0.28 0.01 93 1010.3
20260505033055 56 0 0.0 0.0 0.00 0.28 0.01 93 1010.3
20260505032556 56 0 0.0 0.0 0.00 0.28 0.01 93 1010.4
20260505032057 56 0 0.0 0.0 0.00 0.28 0.01 92 1010.4
20260505031556 56 0 0.0 0.0 0.00 0.28 0.01 92 1010.4
20260505031056 56 0 0.0 0.0 0.00 0.28 0.01 92 1010.5
20260505030556 56 0 0.0 0.0 0.00 0.28 0.01 92 1010.6
20260505030117 56 0 0.0 0.0 0.00 0.28 0.01 92 1010.6
20260505025556 56 0 0.0 0.0 0.00 0.28 0.01 92 1010.6
20260505025100 56 0 0.0 0.0 0.00 0.28 0.01 92 1010.5
20260505024559 56 0 0.0 0.0 0.00 0.28 0.01 92 1010.6
20260505024056 56 0 0.0 0.0 0.00 0.28 0.01 92 1010.6
20260505023557 56 0 0.0 0.0 0.00 0.28 0.01 92 1010.6
20260505023055 56 0 0.0 0.0 0.00 0.27 0.00 92 1010.6
20260505022557 56 0 0.0 0.0 0.00 0.27 0.00 92 1010.6
20260505022059 56 0 0.0 0.0 0.00 0.27 0.00 92 1010.7
20260505021557 56 0 0.0 0.0 0.00 0.27 0.00 92 1010.8
20260505021055 56 0 0.0 0.0 0.00 0.27 0.00 92 1010.8
20260505020556 56 0 0.0 0.0 0.00 0.27 0.00 92 1010.9
20260505015558 56 0 0.0 0.0 0.00 0.27 0.00 92 1010.9
20260505015100 56 0 0.0 0.0 0.00 0.27 0.00 92 1010.9
20260505014611 56 0 0.0 0.0 0.00 0.27 0.00 92 1011.0
20260505014059 56 0 0.0 0.0 0.00 0.27 0.00 92 1011.0
20260505013557 56 0 0.0 0.0 0.00 0.27 0.00 92 1010.9
20260505013101 56 0 0.0 0.0 0.00 0.27 0.00 92 1010.9